Regional Weather Roundup
Issued by NWS

Home | Current Version | Previous Version | Text Only | Print | Product List | Glossary On
Versions: 1 2 3 4 5 6 7 8 9 10 11 12 13 14 15 16 17 18 19 20 21 22 23 24 25 26 27
000
ASUS46 KPQR 250710
RWROR

OREGON REGIONAL WEATHER ROUNDUP
NATIONAL WEATHER SERVICE PORTLAND OR
1200 AM PDT WED APR 25 2018

NOTE: "FAIR" INDICATES FEW OR NO CLOUDS BELOW 12,000 FEET WITH
NO SIGNIFICANT WEATHER AND/OR OBSTRUCTIONS TO VISIBILITY.

ORZ001>013-250800-
NORTHWEST OREGON


CITY           SKY/WX    TMP DP  RH WIND       PRES   REMARKS
ASTORIA        PTCLDY    53  47  79 SE6       29.99S
TILLAMOOK      PTCLDY    50  43  76 CALM      30.00R
NEWPORT        CLOUDY    50  48  93 S13       30.04R FOG
PORTLAND       MOCLDY    60  43  53 NW3       29.99R
VANCOUVER WA   MOCLDY    58  45  62 CALM      29.99R
SCAPPOOSE      MOCLDY    59  41  51 NW5       29.99R
HILLSBORO      MOCLDY    51  46  83 NW5       29.99R
AURORA         PTCLDY    64  39  39 N6        29.98R
MCMINNVILLE    PTCLDY    59  43  55 N8        29.98R
SALEM          PTCLDY    60  41  49 CALM      29.97R
CORVALLIS      PTCLDY    54  47  77 CALM      29.98R
EUGENE         CLEAR     53  47  79 SW5       29.98R
$$

ORZ021-028-250800-
SOUTHWEST OREGON


CITY           SKY/WX    TMP DP  RH WIND       PRES   REMARKS
NORTH BEND     MOCLDY    50  49  96 CALM      30.04F
BROOKINGS      LGT RAIN  50  50 100 SE5       30.06R VSB 1/2
ROSEBURG       MOCLDY    63  44  50 CALM      29.98R
SEXTON SUMMIT  MOCLDY    56  30  37 NW8       30.07S
GRANTS PASS    FAIR      59  45  58 CALM      30.02R
MEDFORD        PTCLDY    64  42  44 CALM      29.98R
$$

ORZ014>016-041-250800-
COLUMBIA GORGE


CITY           SKY/WX    TMP DP  RH WIND       PRES   REMARKS
TROUTDALE      MOCLDY    66  38  35 E13       29.98R
HOOD RIVER     MOCLDY    50  41  71 S5        30.08R
THE DALLES     MOCLDY    56  40  55 E6        30.07R
$$

ORZ029>031-041-044-049-050-061>064-502-503-505>511-250800-
EASTERN OREGON


CITY           SKY/WX    TMP DP  RH WIND       PRES   REMARKS
MADRAS         MOCLDY    45  36  70 SE6       30.13R
REDMOND        MOCLDY    55  35  47 W5        30.11S
BEND           MOCLDY    50  34  53 CALM      30.13
PRINEVILLE     PTCLDY    52  34  50 CALM      30.13R
KLAMATH FALLS  MOCLDY    48  35  60 CALM      30.10R
LAKEVIEW       PTCLDY    36  28  73 NW6       30.15R
HERMISTON      PTCLDY    48  43  82 SE6       30.05F
PENDLETON      CLEAR     51  40  65 E9        30.06F
JOHN DAY       CLEAR     51  30  44 E5        30.18S
MEACHAM        PTCLDY    43  31  62 CALM      30.16F
LA GRANDE      CLEAR     56  32  40 S13       30.17F
BAKER CITY     CLEAR     45  30  55 SE8       30.21S
BURNS          PTCLDY    43  25  49 NE9       30.19R
ROME             N/A     54  24  31 W5        30.17R
ONTARIO        CLEAR     48  35  60 CALM      30.20S
$$




USA.gov is the U.S. government's official web portal to all federal, state and local government web resources and services.